Location: Home
(42.5358°N, 72.7383°W)
Time: 22:08:35
(UTC-05:00)

Altair - Pass Details

Date: 13 December 2021
Orbit: 1501 x 1683 km, 47.2° (Epoch: 26 January)

Event Time Altitude Azimuth Distance (km) Brightness Sun altitude
Rises 16:36:55 0° 285° (WNW) 4,774 10.9 -3.8°
Reaches altitude 10° 16:40:05 10° 288° (WNW) 3,764 10.3 -4.3°
Maximum altitude 16:49:35 72° 12° (NNE) 1,598 7.5 -5.9°
Drops below altitude 10° 16:58:47 10° 97° (E) 3,656 9.0 -7.4°
Enters shadow 17:01:32 - 99° (E) 4,546 9.5 -7.9°
